Weather in Erbaa

Turkey     40°40′17″N   36°33′58″E
temp.,
°C
wind,
m/s
gust,
m/s
humid.,
%
clouds,
%
prec.,
mm/h
press.,
hPa
HPBL,
m
28 january, thu
thu2800:00+6ese225346 0.0 100343
03:00+6ssw395465 0.1 1003414
06:00+5sw2978100 1.4 1005543
09:00+5s2671100 4.2 1008487
12:00+8sw51148100 0.1 10102041
15:00+9wsw6113782 0.1 10112289
18:00+4nne336943 0.0 1013150
21:00+2nnw128672 0.1 1013261
29 january, fri
fri2900:00+1nnw1197100 2.7 101588
03:00+1ese1196100 3.6 1014119
06:00+1ese129298 0.0 1015151
09:00+1nnw118599 0.0 1016122
12:00+5ese016093 0.0 1015695
15:00+6sw024752 0.0 10141459
18:00+3s226026 0.0 101525
21:00+1sse227113 0.0 101641
30 january, sat
sat3000:000sse227027 0.0 101644
03:00−1sse236650 0.0 101751
06:000se236238 0.0 101665
09:00+1se235622 0.0 1015139
12:00+6se34406 0.0 1013584
15:00+7sse343945 0.0 1009563
18:00+4se345363 0.0 100885
21:00+4se465079 0.0 1009157
31 january, sun
sun3100:00+3sse3467100 0.4 1009187
03:00+2ese1281100 0.4 100976
06:00+2se228198 0.0 101052
09:00+3s117949 0.0 101378
12:00+8se135817 0.0 1014533
15:00+11s245125 0.0 1014926
18:00+7sse347034 0.0 101464
21:00+5sse237149 0.0 101556
1 february, mon
mon100:00+4se347168 0.0 101680
03:00+5se456956 0.0 101693
06:00+5se466989 0.0 1015160
09:00+6se356894 0.0 1016166
12:00+13s51249100 0.0 10151007
15:00+14sse51148100 0.0 10131246
18:00+9ese466493 0.0 1013134
21:00+8ese466581 0.0 1016133